DateTimeUTC,F1_A11,F1_S11,BsB_S11,BsG_S11,BsR_S11,BbsB_S11,BbsG_S11,BbsR_S11,BaB_A11,BaG_A11,BaR_A11,Tu_S11,T_S11,Uu_S11,U_S11,P_S11,T1_A11
2021-08-04T07:00:00Z,00000200,20000000,,,,,,,-000.02,0000.23,0000.31,17.3,24.4,01.5,01.0,0669.9,30.9
2021-08-04T07:01:00Z,00000200,20000000,,,,,,,0000.43,-000.08,0000.20,17.3,24.4,01.5,01.0,0669.9,30.9
2021-08-04T07:02:00Z,00000200,20000000,,,,,,,0000.10,0000.45,-000.17,17.3,24.4,01.5,01.0,0669.9,30.9
2021-08-04T07:03:00Z,00000200,60000000,,,,,,,0000.14,0000.05,-000.10,17.3,24.4,01.5,01.0,0669.9,30.9
2021-08-04T07:04:00Z,00000200,41000000,0000.07,0000.01,0000.07,-000.50,-000.19,-000.04,-000.10,-000.04,0000.82,17.7,24.4,01.7,01.1,0670.8,30.9
2021-08-04T07:05:00Z,00000200,01000000,-000.70,-000.07,-000.05,-000.57,-000.14,0000.04,0000.24,0000.19,0000.02,17.8,24.4,01.8,01.2,0670.8,30.9
2021-08-04T07:06:00Z,00000200,01000000,0000.30,0000.29,-000.06,-000.33,-000.17,-000.04,-000.13,-000.05,-000.10,17.8,24.3,01.9,01.3,0670.8,30.9
2021-08-04T07:07:00Z,00000200,01000000,-000.52,0000.16,0000.20,0000.09,-000.27,-000.16,0000.46,0000.18,0000.04,17.7,24.3,01.9,01.3,0670.9,30.9
2021-08-04T07:08:00Z,00000200,00000000,0000.23,0000.44,0000.05,0000.64,0000.06,0000.03,-000.16,-000.12,-000.29,17.7,24.3,02.1,01.4,0670.9,30.9
2021-08-04T07:09:00Z,00000200,01000000,0000.55,0000.00,0000.28,0000.02,-000.24,0000.21,-000.53,-000.08,0000.14,17.7,24.2,02.0,01.3,0670.9,30.9
2021-08-04T07:10:00Z,00000200,01000000,-000.33,-000.07,-000.18,-000.73,-000.04,0000.20,-000.14,-000.11,-000.21,17.6,24.2,02.0,01.3,0670.9,30.9
2021-08-04T07:11:00Z,00000200,01000000,-000.61,0000.30,-000.07,-000.15,0000.01,0000.13,0000.53,0000.28,-000.03,17.6,24.2,01.9,01.3,0670.9,30.9
2021-08-04T07:12:00Z,00000200,00000000,0000.34,0000.14,-000.05,0000.19,0000.13,0000.24,0000.10,0000.07,0000.26,17.6,24.2,02.1,01.4,0670.9,30.8
2021-08-04T07:13:00Z,00000200,00000000,-000.18,0000.26,-000.16,-000.02,-000.34,0000.22,-000.34,-000.30,-000.44,17.5,24.2,02.0,01.4,0670.9,30.8
2021-08-04T07:14:00Z,00000200,00000000,0000.28,0000.02,0000.11,0000.06,-000.40,0000.01,0000.33,0000.34,0000.41,17.5,24.1,01.9,01.3,0670.9,30.8
2021-08-04T07:15:00Z,00000200,00000000,-000.11,0000.04,0000.15,-000.34,-000.34,0000.01,0000.26,0000.26,0000.34,17.5,24.1,02.0,01.4,0670.9,30.8
2021-08-04T07:16:00Z,00000200,00000000,-000.50,-000.09,-000.06,-000.52,-000.19,-000.08,0000.36,0000.11,0000.11,17.6,24.1,02.1,01.4,0670.8,30.9
2021-08-04T07:17:00Z,00000200,00000000,-000.65,-000.16,-000.15,-000.62,-000.26,0000.01,0000.14,0000.17,0000.42,17.7,24.2,02.1,01.4,0670.8,30.9
2021-08-04T07:18:00Z,00000200,00000000,0000.11,-000.03,-000.20,-000.70,-000.17,-000.09,0000.40,0000.38,-000.22,17.7,24.2,02.2,01.5,0670.8,30.9
2021-08-04T07:19:00Z,00000200,00000000,0000.43,0000.06,0000.10,0000.20,0000.01,0000.16,-000.56,-000.02,0000.26,17.8,24.2,02.2,01.5,0670.8,30.9
2021-08-04T07:20:00Z,00000200,00000000,-000.08,0000.09,-000.15,-000.49,0000.10,-000.04,-000.34,-000.28,-000.23,17.7,24.2,02.3,01.6,0670.8,30.9
2021-08-04T07:21:00Z,00000200,00000000,0000.44,0000.38,0000.00,-000.34,-000.27,-000.02,0000.25,-000.14,-000.04,17.7,24.2,02.2,01.5,0670.8,30.9
2021-08-04T07:22:00Z,00000200,00000000,0000.11,-000.00,0000.11,-000.00,-000.23,0000.21,0000.22,0000.23,0000.18,17.7,24.2,02.2,01.5,0670.8,30.9
2021-08-04T07:23:00Z,00000200,00000000,-000.46,0000.33,-000.01,0000.01,-000.25,0000.14,0000.10,0000.36,0000.34,17.7,24.2,02.2,01.5,0670.8,30.9
2021-08-04T07:24:00Z,00000200,00000000,-000.46,0000.04,0000.03,-000.93,-000.01,-000.02,0000.35,-000.07,-000.06,17.6,24.2,02.4,01.6,0670.8,30.8
2021-08-04T07:25:00Z,00000200,00000000,-001.16,-000.13,0000.02,-000.34,-000.08,0000.16,0000.01,0000.32,0000.53,17.6,24.1,02.5,01.7,0670.8,30.8
2021-08-04T07:26:00Z,00000200,00000000,-000.41,-000.09,-000.00,0000.12,0000.13,0000.17,-000.00,0000.19,-000.01,17.6,24.1,02.6,01.7,0670.8,30.8
2021-08-04T07:27:00Z,00000200,00000000,-000.71,-000.06,-000.01,0000.06,-000.07,0000.05,0000.36,-000.13,-000.10,17.5,24.1,02.7,01.8,0670.8,30.8
2021-08-04T07:28:00Z,00000200,00000000,0000.02,0000.29,0000.13,-000.17,-000.16,0000.29,-000.49,0000.10,0000.03,17.5,24.1,02.7,01.8,0670.8,30.8
2021-08-04T07:29:00Z,00000200,00000000,0000.13,0000.15,0000.08,0000.11,-000.01,0000.25,0000.24,-000.13,-000.39,17.5,24.1,02.7,01.8,0670.8,30.8
2021-08-04T07:30:00Z,00000200,00000000,0000.03,-000.05,-000.23,-000.13,-000.06,0000.09,0000.28,0000.14,0000.31,17.5,24.0,02.6,01.8,0670.8,30.8
2021-08-04T07:31:00Z,00000200,00000000,-000.45,0000.50,0000.31,-000.11,-000.38,0000.17,0000.34,0000.35,0000.99,17.6,24.1,02.7,01.8,0670.7,30.9
2021-08-04T07:32:00Z,00000200,00000000,0000.18,0000.17,-000.05,-000.23,-000.26,-000.05,0001.09,0001.27,0000.81,17.6,24.1,03.0,02.0,0670.7,30.9
2021-08-04T07:33:00Z,00000200,00000000,-001.06,0000.06,-000.18,-000.19,-000.21,0000.15,0000.67,0001.11,0000.76,17.7,24.1,03.5,02.3,0670.7,30.9
2021-08-04T07:34:00Z,00000200,00000000,0000.62,0000.41,-000.06,0000.38,-000.06,0000.27,0000.52,0000.20,0000.26,17.7,24.1,03.8,02.6,0670.7,30.9
2021-08-04T07:35:00Z,00000200,00000000,0000.22,-000.05,-000.10,0000.16,0000.03,0000.15,0000.41,0000.73,0000.38,17.7,24.1,04.1,02.7,0670.7,30.9
2021-08-04T07:36:00Z,00000200,00000000,-000.14,0000.19,0000.24,-000.51,-000.09,0000.41,0000.35,-000.24,0000.01,17.6,24.1,04.3,02.9,0670.7,30.9
2021-08-04T07:37:00Z,00000200,00000000,0000.06,-000.17,0000.09,-000.04,-000.26,0000.28,-000.10,0000.03,-000.10,17.6,24.1,04.4,02.9,0670.7,30.9
2021-08-04T07:38:00Z,00000200,00000000,0000.08,0000.32,0000.14,-000.00,0000.10,0000.04,-000.83,-000.58,-000.39,17.6,24.0,04.2,02.8,0670.7,30.9
2021-08-04T07:39:00Z,00000200,00000000,-000.18,0000.15,-000.26,0000.04,-000.43,0000.27,-000.09,-000.46,-000.35,17.6,24.0,03.8,02.6,0670.7,30.8
2021-08-04T07:40:00Z,00000200,00000000,0000.27,0000.47,-000.08,-000.08,-000.05,0000.07,-000.84,-000.64,-000.58,17.5,24.0,03.5,02.4,0670.7,30.8
2021-08-04T07:41:00Z,00000200,00000000,-000.14,0000.12,0000.21,-000.61,-000.35,0000.03,-000.22,-000.30,-000.52,17.5,24.0,03.4,02.3,0670.7,30.8
2021-08-04T07:42:00Z,00000200,00000000,0000.61,0000.34,-000.10,-000.09,0000.36,0000.39,-000.36,-000.16,-000.45,17.5,24.0,03.1,02.1,0670.7,30.8
2021-08-04T07:43:00Z,00000200,00000000,0000.09,0000.28,0000.37,0000.04,-000.15,-000.02,-000.48,-000.36,-000.19,17.5,24.0,03.0,02.0,0670.8,30.8
2021-08-04T07:44:00Z,00000200,00000000,0000.72,0000.50,0000.09,-000.20,0000.05,0000.15,0000.10,-000.31,-000.10,17.4,24.0,02.8,01.9,0670.8,30.8
2021-08-04T07:45:00Z,00000200,00000000,0000.12,0000.15,0000.05,0000.22,-000.06,0000.06,-000.09,-000.18,-000.30,17.4,24.0,02.7,01.8,0670.8,30.8
2021-08-04T07:46:00Z,00000200,00000000,-000.06,0000.07,-000.09,-000.40,-000.15,0000.26,0000.15,-000.11,0000.04,17.5,24.0,02.5,01.7,0670.7,30.9
2021-08-04T07:47:00Z,00000200,00000000,-000.33,0000.24,-000.18,0000.13,-000.27,-000.25,0000.19,0000.73,0000.35,17.6,24.0,02.6,01.8,0670.7,30.9
2021-08-04T07:48:00Z,00000200,00000000,-000.11,-000.08,0000.03,-000.13,-000.02,0000.12,0000.47,0000.47,0000.57,17.6,24.1,02.8,01.9,0670.7,30.9
2021-08-04T07:49:00Z,00000200,00000000,0000.04,0000.16,-000.16,-000.06,0000.03,0000.13,0000.24,-000.25,0000.50,17.7,24.1,03.0,02.1,0670.7,30.9
2021-08-04T07:50:00Z,00000200,00000000,0000.14,0000.22,0000.36,-000.07,-000.25,-000.16,-000.15,0000.06,-000.10,17.7,24.1,03.1,02.1,0670.7,30.9
2021-08-04T07:51:00Z,00000200,00000000,-000.51,0000.14,-000.29,-000.15,0000.02,0000.13,-000.20,-000.09,-000.31,17.6,24.0,03.1,02.1,0670.7,30.9
2021-08-04T07:52:00Z,00000200,00000000,0000.07,-000.20,-000.04,-000.17,-000.23,0000.13,0000.12,0000.31,-000.17,17.6,24.0,03.0,02.0,0670.7,30.9
2021-08-04T07:53:00Z,00000200,00000000,-000.16,-000.04,-000.13,-000.13,-000.03,0000.19,0000.31,-000.07,0000.22,17.6,24.0,03.2,02.1,0670.7,30.9
2021-08-04T07:54:00Z,00000200,00000000,0000.03,0000.00,-000.13,0000.07,-000.06,0000.20,-000.16,-000.21,-000.06,17.5,24.0,03.1,02.1,0670.7,30.9
2021-08-04T07:55:00Z,00000200,00000000,-000.16,0000.05,0000.09,0000.62,-000.10,0000.07,0000.15,0000.01,0000.30,17.5,24.0,03.2,02.2,0670.7,30.9
2021-08-04T07:56:00Z,00000200,00000000,-000.62,-000.16,-000.01,-000.78,-000.14,0000.26,-000.60,-000.06,-000.55,17.5,24.0,03.2,02.1,0670.8,30.9
2021-08-04T07:57:00Z,00000200,40000000,,,,,,,-000.19,-000.31,-000.21,17.5,24.0,03.3,02.2,0670.7,30.9
2021-08-04T07:58:00Z,00000200,60000000,,,,,,,0000.06,-000.17,0000.01,17.2,24.1,02.9,01.9,0669.8,30.9
2021-08-04T07:59:00Z,00000200,20000000,,,,,,,0000.19,-000.04,-000.08,17.2,24.2,02.9,01.9,0669.8,30.8
